Station WLON7 - 8658120 - Wilmington, NC Image indicating link to RSS feed of recent meteorological observations for station WLON7


Conditions at WLON7 as of
(6:00 pm EDT)
2200 GMT on 06/12/2024:
     

Click on the graph icon in the table below to see a time series plot of the last five days of that observation.

5-day plot - Atmospheric Pressure Atmospheric Pressure (PRES):29.97 in
5-day plot - Pressure Tendency Pressure Tendency (PTDY):-0.02 in ( Falling )
5-day plot - Water Temperature Water Temperature (WTMP): 82.2 °F
NOS Water Level Observation Network Water Level
Previous observations
TIME
(EDT)
5-day plot - Wind Direction
WDIR
 
5-day plot - Wind Speed
WSPD
kts
5-day plot - Wind Gust
GST
kts
5-day plot - Wave Height
WVHT
ft
5-day plot - Dominant Wave Period
DPD
sec
5-day plot - Average Wave Period
APD
sec
5-day plot - Mean Wave Direction
MWD
 
5-day plot - Atmospheric Pressure
PRES
in
5-day plot - Pressure Tendency
PTDY
in
5-day plot - Air Temperature
ATMP
°F
5-day plot - Water Temperature
WTMP
°F
5-day plot - Dew Point
DEWP
°F
5-day plot - Salinity
SAL
psu
5-day plot - Visibility
VIS
nmi
5-day plot - Tide (above MLLW)
TIDE
ft
2024-06-12 05:54 pm-------29.98-- 82.0----
2024-06-12 05:48 pm-------29.98-- 82.0----
2024-06-12 05:42 pm-------29.97-- 82.0----
2024-06-12 05:36 pm-------29.98-- 82.0----
2024-06-12 05:30 pm-------29.98- 81.9 81.9----
2024-06-12 05:24 pm-------29.98- 82.6 81.9----
2024-06-12 05:18 pm-------29.98- 81.9 81.7----
2024-06-12 05:12 pm-------29.98- 83.1 81.7----
2024-06-12 05:06 pm-------29.98- 81.7 81.7----
2024-06-12 05:00 pm-------29.98-0.01- 81.9----
2024-06-12 04:54 pm-------29.99-- 82.0----
2024-06-12 04:48 pm-------29.99-- 82.2----
2024-06-12 04:42 pm-------29.98-- 82.0----
2024-06-12 04:36 pm-------29.98-- 81.9----
2024-06-12 04:30 pm-------29.98- 81.1 81.7----
2024-06-12 04:24 pm-------29.98- 81.7 81.1----
2024-06-12 04:18 pm-------29.98- 81.3 81.1----
2024-06-12 04:12 pm-------29.98- 81.9 81.1----
2024-06-12 04:06 pm-------29.98- 82.0 81.0----
2024-06-12 04:00 pm-------29.98-0.02- 81.0----
2024-06-12 03:54 pm-------29.98-- 81.0----
2024-06-12 03:48 pm-------29.98-- 81.0----
2024-06-12 03:42 pm-------29.98-- 81.1----
2024-06-12 03:36 pm-------29.98-- 81.1----
2024-06-12 03:30 pm-------29.99- 83.1 81.1----
2024-06-12 03:24 pm-------29.99- 82.9 81.1----
2024-06-12 03:18 pm-------29.99- 82.8 81.1----
2024-06-12 03:12 pm-------29.98- 81.7 81.0----
2024-06-12 03:06 pm-------29.98- 81.3 81.0----
2024-06-12 03:00 pm-------29.99-0.02 82.6 81.0----
2024-06-12 02:54 pm-------29.99- 82.4 81.0----
2024-06-12 02:48 pm-------29.99-- 81.0----
2024-06-12 02:42 pm-------29.99-- 81.0----
2024-06-12 02:36 pm-------29.99-- 81.0----
2024-06-12 02:30 pm-------29.99- 84.9 81.0----
2024-06-12 02:24 pm-------29.99- 83.7 81.0----
2024-06-12 02:18 pm-------29.99-- 81.0----
2024-06-12 02:12 pm-------30.00-- 81.0----
2024-06-12 02:06 pm-------30.00-- 81.0----
2024-06-12 02:00 pm-------30.00+0.00- 81.0----
2024-06-12 01:54 pm-------30.00-- 81.0----
2024-06-12 01:48 pm-------30.00-------
2024-06-12 01:42 pm-------30.00-------
2024-06-12 01:36 pm-------30.00-------
2024-06-12 01:30 pm-------30.00- 82.6 81.1----
2024-06-12 01:24 pm-------30.01- 84.0 81.1----
2024-06-12 01:18 pm-------30.01-- 81.1----
2024-06-12 01:12 pm-------30.01-- 81.1----
2024-06-12 01:06 pm-------30.01-- 81.1----
2024-06-12 01:00 pm-------30.01+0.00 82.6 81.0----
2024-06-12 12:54 pm-------30.01- 82.9 81.0----
2024-06-12 12:48 pm-------30.01-- 81.1----
2024-06-12 12:42 pm-------30.01-- 81.1----
2024-06-12 12:36 pm-------30.01-- 81.1----
2024-06-12 12:30 pm-------30.01- 82.8-----
2024-06-12 12:24 pm-------30.02- 82.9-----
2024-06-12 12:18 pm-------30.01-------
2024-06-12 12:12 pm-------30.01-------
2024-06-12 12:06 pm-------30.01-------
2024-06-12 12:00 pm-------30.01+0.02 83.7 81.0----
2024-06-12 11:54 am-------30.01- 84.0 81.0----
2024-06-12 11:48 am-------30.01- 84.0 81.0----
2024-06-12 11:42 am-------30.01- 82.9 81.0----
2024-06-12 11:36 am-------30.01- 84.7 81.0----
2024-06-12 11:30 am-------30.01- 84.2 81.0----
2024-06-12 11:24 am-------30.01- 82.6 81.0----
2024-06-12 11:18 am-------30.01- 83.1 81.0----
2024-06-12 11:12 am-------30.01- 82.9 81.0----
2024-06-12 11:06 am-------30.01- 82.2 81.1----
2024-06-12 11:00 am-------30.01+0.03- 81.3----
2024-06-12 10:54 am-------30.01-- 81.5----
2024-06-12 10:48 am-------30.00-- 81.3----
2024-06-12 10:42 am-------30.00-- 81.3----
2024-06-12 10:36 am-------30.00-- 81.3----
2024-06-12 10:30 am-------30.00- 81.7 81.3----
2024-06-12 10:24 am-------30.00- 81.5 81.3----
2024-06-12 10:18 am-------30.00-- 81.1----
2024-06-12 10:12 am-------30.00-- 81.1----
2024-06-12 10:06 am-------30.00-- 81.0----
2024-06-12 10:00 am-------30.00+0.03 81.1 81.0----
2024-06-12 09:54 am-------30.00- 81.0 81.0----
2024-06-12 09:48 am-------30.00-- 80.8----
2024-06-12 09:42 am-------30.00-- 80.8----
2024-06-12 09:36 am-------30.00-- 80.8----
2024-06-12 09:30 am-------30.00- 80.8 80.8----
2024-06-12 09:24 am-------30.00- 80.4 80.8----
2024-06-12 09:18 am-------29.99- 79.9 80.6----
2024-06-12 09:12 am-------29.99- 79.7 80.6----
2024-06-12 09:06 am-------29.99- 79.0 80.6----
2024-06-12 09:00 am-------29.99+0.04 79.0 80.6----
2024-06-12 08:54 am-------29.99- 78.6 80.6----
2024-06-12 08:48 am-------29.99- 78.3 80.6----
2024-06-12 08:42 am-------29.99- 77.4 80.6----
2024-06-12 08:36 am-------29.99- 76.5 80.4----
2024-06-12 08:30 am-------29.98- 75.7 80.4----
2024-06-12 08:24 am-------29.98- 75.2 80.4----
2024-06-12 08:18 am-------29.98- 74.7 80.4----
2024-06-12 08:12 am-------29.98- 74.5 80.4----
2024-06-12 08:06 am-------29.98- 74.3 80.4----
2024-06-12 08:00 am-------29.98+0.04 74.1 80.4----
2024-06-12 07:54 am-------29.98- 73.8 80.4----
2024-06-12 07:48 am-------29.97-- 80.4----
2024-06-12 07:42 am-------29.97-- 80.4----
2024-06-12 07:36 am-------29.97-- 80.8----
2024-06-12 07:30 am-------29.97- 73.0 80.8----
2024-06-12 07:24 am-------29.97- 72.7 80.6----
2024-06-12 07:18 am-------29.97- 72.1 80.6----
2024-06-12 07:12 am-------29.97- 71.6 80.6----
2024-06-12 07:06 am-------29.98- 71.4 80.6----
2024-06-12 07:00 am-------29.97+0.04 71.2 80.6----
2024-06-12 06:54 am-------29.97- 71.2 80.6----
2024-06-12 06:48 am-------29.97-- 80.6----
2024-06-12 06:42 am-------29.96-- 80.6----
2024-06-12 06:36 am-------29.96-- 80.6----
2024-06-12 06:30 am-------29.96- 70.3 80.6----
2024-06-12 06:24 am-------29.96- 70.2 80.6----
2024-06-12 06:18 am-------29.96-- 80.8----
2024-06-12 06:12 am-------29.96-- 81.0----
2024-06-12 06:06 am-------29.95-- 81.1----
2024-06-12 06:00 am-------29.95+0.03 70.7 81.1----
2024-06-12 05:54 am-------29.94- 70.9 81.3----
2024-06-12 05:48 am-------29.94-- 81.3----
2024-06-12 05:42 am-------29.95-- 81.3----
2024-06-12 05:36 am-------29.94-- 81.3----
2024-06-12 05:30 am-------29.94- 70.7 81.3----
2024-06-12 05:24 am-------29.94- 70.5 81.3----
2024-06-12 05:18 am-------29.93- 70.7 81.3----
2024-06-12 05:12 am-------29.93- 70.9 81.3----
2024-06-12 05:06 am-------29.93- 70.5 81.3----
2024-06-12 05:00 am-------29.93+0.00- 81.3----
2024-06-12 04:54 am-------29.93-- 81.3----
2024-06-12 04:48 am-------29.93-- 81.3----
2024-06-12 04:42 am-------29.94-- 81.3----
2024-06-12 04:36 am-------29.93-- 81.1----
2024-06-12 04:30 am-------29.93- 70.7 81.1----
2024-06-12 04:24 am-------29.93- 70.9 81.1----
2024-06-12 04:18 am-------29.93- 71.1 81.1----
2024-06-12 04:12 am-------29.93- 71.2 81.1----
2024-06-12 04:06 am-------29.93- 71.2 81.1----
2024-06-12 04:00 am-------29.93+0.00- 81.3----
2024-06-12 03:54 am-------29.93-- 81.3----
2024-06-12 03:48 am-------29.93- 71.6 81.3----
2024-06-12 03:42 am-------29.93- 71.2 81.3----
2024-06-12 03:36 am-------29.93- 71.6 81.3----
2024-06-12 03:30 am-------29.93- 71.6 81.3----
2024-06-12 03:24 am-------29.93- 71.6 81.3----
2024-06-12 03:18 am-------29.93- 72.0 81.3----
2024-06-12 03:12 am-------29.93- 72.0 81.3----
2024-06-12 03:06 am-------29.93- 71.8 81.3----
2024-06-12 03:00 am-------29.92+0.00 71.4 81.3----
2024-06-12 02:54 am-------29.92- 71.1 81.3----
2024-06-12 02:48 am-------29.93- 71.1 81.3----
2024-06-12 02:42 am-------29.93- 71.2 81.3----
2024-06-12 02:36 am-------29.93- 71.4 81.3----
2024-06-12 02:30 am-------29.93-- 81.3----
2024-06-12 02:24 am-------29.93-- 81.3----
2024-06-12 02:18 am-------29.93- 71.1 81.3----
2024-06-12 02:12 am-------29.93- 70.9 81.3----
2024-06-12 02:06 am-------29.93- 71.1 81.3----
2024-06-12 02:00 am-------29.93+0.01 70.9 81.3----
2024-06-12 01:54 am-------29.93- 71.1 81.3----
2024-06-12 01:48 am-------29.93-- 81.3----
2024-06-12 01:42 am-------29.93-- 81.3----
2024-06-12 01:36 am-------29.93-- 81.3----
2024-06-12 01:30 am-------29.93-- 81.5----
2024-06-12 01:24 am-------29.93-- 81.5----
2024-06-12 01:18 am-------29.93- 73.4 81.5----
2024-06-12 01:12 am-------29.93- 73.2 81.5----
2024-06-12 01:06 am-------29.93- 73.0 81.5----
2024-06-12 01:00 am-------29.93+0.02 73.2 81.5----
2024-06-12 12:54 am-------29.93- 73.6 81.5----
2024-06-12 12:48 am-------29.92- 73.9 81.5----
2024-06-12 12:42 am-------29.92- 74.1 81.5----
2024-06-12 12:36 am-------29.92- 74.3 81.5----
2024-06-12 12:30 am-------29.92- 74.5 81.5----
2024-06-12 12:24 am-------29.92- 74.5 81.5----
2024-06-12 12:18 am-------29.92- 74.7 81.5----
2024-06-12 12:12 am-------29.92- 74.8 81.5----
2024-06-12 12:06 am-------29.92- 74.7 81.5----
2024-06-12 12:00 am-------29.92+0.03- 81.5----
2024-06-11 11:54 pm-------29.92-- 81.5----
2024-06-11 11:48 pm-------29.92- 74.5 81.5----
2024-06-11 11:42 pm-------29.92- 74.5 81.5----
2024-06-11 11:36 pm-------29.92- 74.1 81.5----
2024-06-11 11:30 pm-------29.92-- 81.5----
2024-06-11 11:24 pm-------29.91-- 81.5----
2024-06-11 11:18 pm-------29.91- 73.0 81.5----
2024-06-11 11:12 pm-------29.91- 73.2 81.5----
2024-06-11 11:06 pm-------29.92- 73.4 81.5----
2024-06-11 11:00 pm-------29.92+0.04 74.1 81.7----
2024-06-11 10:54 pm-------29.91- 75.0 81.7----
2024-06-11 10:48 pm-------29.91-- 81.7----
2024-06-11 10:42 pm-------29.91-- 81.7----
2024-06-11 10:36 pm-------29.91-- 81.7----
2024-06-11 10:30 pm-------29.91- 74.3 81.7----
2024-06-11 10:24 pm-------29.91- 74.7 81.7----
2024-06-11 10:18 pm-------29.91- 75.9 81.7----
2024-06-11 10:12 pm-------29.91- 75.7 81.7----
2024-06-11 10:06 pm-------29.91- 75.9 81.7----
2024-06-11 10:00 pm-------29.91+0.04 76.6 81.7----
2024-06-11 09:54 pm-------29.90- 76.6 81.7----
2024-06-11 09:48 pm-------29.90-- 81.7----
2024-06-11 09:42 pm-------29.90-- 81.7----
2024-06-11 09:36 pm-------29.90-- 81.5----
2024-06-11 09:30 pm-------29.90-------
2024-06-11 09:24 pm-------29.89-------
2024-06-11 09:18 pm-------29.89-------
2024-06-11 09:12 pm-------29.89-------
2024-06-11 09:06 pm-------29.88-------
2024-06-11 09:00 pm-------29.88+0.03 77.7 81.7----
2024-06-11 08:54 pm-------29.88- 77.9 81.7----
2024-06-11 08:48 pm-------29.88-- 81.7----
2024-06-11 08:42 pm-------29.88-- 81.7----
2024-06-11 08:36 pm-------29.89-- 81.7----
2024-06-11 08:30 pm-------29.88-- 81.7----
2024-06-11 08:24 pm-------29.88-- 81.7----
2024-06-11 08:18 pm-------29.88- 78.6 81.7----
2024-06-11 08:12 pm-------29.88- 78.6 81.9----
2024-06-11 08:06 pm-------29.88- 78.6 81.9----
2024-06-11 08:00 pm-------29.88+0.03 79.0 81.9----
2024-06-11 07:54 pm-------29.88- 79.3 81.9----
2024-06-11 07:48 pm-------29.88-------
2024-06-11 07:42 pm-------29.88-------
2024-06-11 07:36 pm-------29.88-------
2024-06-11 07:30 pm-------29.87-- 82.0----
2024-06-11 07:24 pm-------29.87-- 82.0----
2024-06-11 07:00 pm-------29.87+0.01 80.8 82.2----
2024-06-11 06:54 pm-------29.87- 81.1 82.2----
2024-06-11 06:48 pm-------29.87- 81.5 82.2----
2024-06-11 06:42 pm-------29.86- 81.9 82.2----
2024-06-11 06:36 pm-------29.86- 81.5 82.0----
2024-06-11 06:30 pm-------29.86- 82.0 81.9----
2024-06-11 06:24 pm-------29.86- 82.2 81.9----
2024-06-11 06:18 pm-------29.85- 81.9 81.9----
2024-06-11 06:12 pm-------29.85- 81.9 81.9----
2024-06-11 06:06 pm-------29.85- 81.5 81.9----
2024-06-11 06:00 pm-------29.85+0.00- 81.9----
2024-06-11 05:54 pm-------29.86-- 81.9----